Location: Bonnesvalyn
(49.1218°N, 3.3177°E)
Time: 20:31:13
(UTC+00:00)

BlueWalker 3 - Pass Details

Date: 09 February 2023
Orbit: 497 x 515 km, 53.2° (Epoch: 21 March)

Event Time Altitude Azimuth Distance (km) Brightness Sun altitude
Rises 19:54:25 0° 289° (WNW) 2,609 6.8 -29.4°
Reaches altitude 10° 19:57:02 10° 272° (W) 1,725 5.5 -29.8°
Enters shadow 19:58:59 18° 243° (WSW) 1,295 4.5 -30.1°
